[[{"header":{"parameterUnit":"m.s-1","parameterCategory":1,"la1":30.2991,"la2":30.254,"lo1":-89.0895,"lo2":-89.0444,"dy":0.0017,"dx":0.0017,"nx":28,"ny":28,"refTime":"2024-03-29T09:00:00:Z","depth":0,"parameterNumber":2,"parameterNumberName":"U-component_of_WINDS"},"data":[0,0,0,0,0,0,0,0,0,0,0,0,0,0,0,0,0,0,0,0,0,0,0,0,0,0,0,0,0,0,0,0,0,0,0,0,0,0,0,0,0,0,0,0,0,0,0,0,0,0,0,0,0,0,0,0,0,0,-3.5006,-3.5006,0,-3.5035,-3.5035,-3.5036,-3.4947,-3.4944,-3.4942,-3.4939,-3.4971,-3.4974,-3.4977,0,0,0,0,0,0,0,0,0,0,0,0,0,-3.4875,-3.4878,-3.5006,-3.5006,-3.5006,-3.5035,-3.5035,-3.5036,-3.4947,-3.4944,-3.4941,-3.4938,-3.497,-3.4974,-3.4978,0,0,0,0,0,0,0,0,0,0,0,0,0,-3.4921,-3.4879,-3.5006,-3.4966,-3.4963,-3.5035,-3.5035,-3.5036,-3.4948,-3.4944,-3.494,-3.4936,-3.4968,-3.4973,-3.4978,-3.5091,0,0,-3.4994,-3.4996,0,0,0,0,0,0,0,0,-3.4919,-3.4926,-3.4971,-3.4969,-3.4965,-3.4983,-3.5001,-3.5054,-3.4949,-3.4954,-3.4939,-3.4934,-3.4978,-3.4982,-3.4997,-3.5092,-3.5094,-3.4994,-3.4997,-3.4999,-3.5001,0,0,0,0,0,0,0,-3.4916,-3.4924,-3.5017,-3.4972,-3.4968,-3.4947,-3.4949,-3.5011,-3.4989,-3.4953,-3.4947,-3.4951,-3.4976,-3.4992,-3.4997,-3.5094,-3.4994,-3.4999,-3.5002,-3.5004,-3.5285,-3.5289,0,0,0,0,0,0,-3.4917,-3.4922,-3.5016,-3.5018,-3.4931,-3.4953,-3.4955,-3.4982,-3.4988,-3.4985,-3.4955,-3.4947,-3.4985,-3.4991,-3.4998,-3.5131,-3.4999,-3.5004,-3.5007,-3.528,-3.5286,-3.5291,0,0,0,0,0,0,-3.4915,-3.4927,-3.5015,-3.4969,-3.4978,-3.4959,-3.499,-3.4984,-3.5,-3.4989,-3.4985,-3.4975,-3.4982,-3.4991,-3.5068,-3.5131,-3.5006,-3.5011,-3.5275,-3.5282,-3.5288,-3.5398,0,0,0,0,0,0,-3.4912,-3.4926,-3.4968,-3.497,-3.4981,-3.5085,-3.4994,-3.4988,-3.5009,-3.4999,-3.5007,-3.5004,-3.498,-3.5061,-3.5074,-3.5135,-3.5015,-3.527,-3.5278,-3.5286,-3.5388,-3.5407,-3.5423,0,0,0,0,0,-3.4907,-3.4998,-3.4971,-3.4983,-3.5033,-3.5089,-3.5095,-3.5065,-3.5014,-3.5057,-3.505,-3.5004,-3.5122,-3.507,-3.5083,-3.5147,-3.5266,-3.5276,-3.5285,-3.5381,-3.5403,-3.5423,0,0,0,0,0,0,-3.5005,-3.4998,-3.4967,-3.5061,-3.5077,-3.5074,-3.5127,-3.509,-3.512,-3.511,-3.5071,-3.5073,-3.5159,-3.516,-3.5103,-3.5257,-3.5185,-3.5198,-3.5253,-3.5275,-3.5292,-3.529,-3.5019,0,0,0,0,0,-3.5037,-3.5082,-3.5074,-3.5158,-3.5167,-3.5146,-3.5169,-3.5144,-3.5158,-3.5164,-3.5163,-3.5179,-3.5219,-3.5247,-3.5283,-3.5388,-3.5389,-3.5439,-3.5456,-3.547,-3.5482,-3.5539,-3.5561,-3.5323,-3.5323,-3.5323,0,0,-3.5105,-3.5106,-3.5137,-3.5178,-3.5186,-3.5235,-3.5152,-3.5206,-3.5242,-3.5173,-3.5246,-3.5246,-3.5261,-3.5354,-3.5394,-3.5358,-3.5548,-3.5483,-3.5495,-3.5499,-3.5551,-3.5574,-3.5594,-3.533,-3.5329,-3.5328,0,0,-3.5252,-3.5258,-3.5329,-3.5339,-3.5353,-3.5339,-3.5356,-3.5359,-3.5356,-3.5429,-3.5379,-3.5421,-3.5491,-3.5505,-3.5521,-3.5675,-3.5635,-3.5688,-3.5779,-3.5835,-3.5854,-3.587,-3.5926,-3.5947,-3.57,-3.57,-3.57,0,-3.5335,-3.5405,-3.537,-3.5429,-3.5448,-3.5387,-3.5459,-3.5471,-3.5497,-3.5512,-3.5471,-3.5559,-3.5565,-3.566,-3.5697,-3.5712,-3.5731,-3.5687,-3.5854,-3.587,-3.5885,-3.5938,-3.5959,-3.5706,-3.5706,-3.5705,-3.5704,0,-3.5506,-3.5556,-3.5612,-3.5638,-3.5664,-3.5729,-3.5705,-3.5735,-3.5708,-3.5698,-3.5774,-3.5779,-3.5816,-3.5837,-3.5811,-3.5929,-3.5906,-3.586,-3.5787,-3.5914,-3.5964,-3.5984,-3.5716,-3.5713,-3.5711,-3.571,0,0,-3.5717,-3.5723,-3.5744,-3.5756,-3.5767,-3.5805,-3.5868,-3.5904,-3.5931,-3.5951,-3.6003,-3.6065,-3.6022,-3.6041,-3.6016,-3.6065,-3.6188,-3.6013,-3.6013,-3.6046,-3.6319,-3.6354,-3.6378,-3.6161,-3.6165,-3.6168,-3.6318,0,-3.5863,-3.597,-3.5941,-3.6048,-3.6094,-3.6037,-3.6092,-3.6105,-3.6098,-3.6137,-3.6128,-3.6173,-3.6113,-3.6124,-3.617,-3.6163,-3.6242,-3.6152,-3.621,-3.6213,-3.6209,-3.6404,-3.6441,-3.6583,-3.6337,-3.634,-3.6343,0,-3.6048,-3.6075,-3.6188,-3.6192,-3.621,-3.626,-3.6291,-3.6328,-3.6343,-3.6334,-3.6355,-3.6321,-3.6384,-3.631,-3.6396,-3.6336,-3.6358,-3.6358,-3.6363,-3.6368,-3.6286,-3.6415,-3.6627,-3.6649,-3.6372,-3.637,-3.6368,0,-3.6192,-3.6256,-3.6332,-3.6343,-3.635,-3.6387,-3.6392,-3.6402,-3.6426,-3.6453,-3.6468,-3.6502,-3.6522,-3.655,-3.6526,-3.6474,-3.6617,-3.6541,-3.6612,-3.6613,-3.6646,-3.6644,-3.6865,-3.6659,-3.6658,-3.6658,-3.6657,0,-3.6359,-3.643,-3.6397,-3.6443,-3.6521,-3.6487,-3.6566,-3.6564,-3.6574,-3.662,-3.6572,-3.6617,-3.6582,-3.6624,-3.6606,-3.6681,-3.669,-3.6685,-3.668,-3.669,-3.6691,-3.6705,-3.6694,-3.6663,-3.6662,-3.6661,-3.666,0,-3.6533,-3.6513,-3.6592,-3.6592,-3.6594,-3.6652,-3.6652,-3.6696,-3.6685,-3.6744,-3.6755,-3.6739,-3.6786,-3.6764,-3.6813,-3.6801,-3.6898,-3.6879,-3.6894,-3.6889,-3.6962,-3.6956,-3.7201,-3.7232,-3.7004,-3.7007,-3.7008,0,-3.6641,-3.6695,-3.6701,-3.6728,-3.6736,-3.678,-3.6804,-3.6772,-3.68,-3.6821,-3.6862,-3.6904,-3.6937,-3.7014,-3.7007,-3.7044,-3.7026,-3.711,-3.7032,-3.7041,-3.7029,-3.7027,-3.7032,-3.7126,-3.7128,-3.713,-3.7132,0,-3.6836,-3.6824,-3.686,-3.6894,-3.6923,-3.6948,-3.6969,-3.6994,-3.6963,-3.6996,-3.7043,-3.7068,-3.7118,-3.7162,-3.7195,-3.72,-3.7162,-3.7157,-3.7175,-3.7187,-3.7194,-3.7192,-3.6937,-3.7151,-3.7149,-3.7148,-3.7147,-3.7146,-3.6981,-3.7026,-3.7038,-3.708,-3.7092,-3.7113,-3.7154,-3.7149,-3.7187,-3.7225,-3.7204,-3.7259,-3.7273,-3.7314,-3.7324,-3.7368,-3.7335,-3.7362,-3.7369,-3.7376,-3.7387,-3.7186,-3.7373,-3.7373,-3.7372,-3.7372,-3.7371,0,-3.7175,-3.7179,-3.7218,-3.7249,-3.7283,-3.7243,-3.7264,-3.7295,-3.7344,-3.736,-3.7392,-3.7447,-3.7489,-3.7485,-3.7524,-3.7559,-3.7543,-3.7571,-3.7568,-3.757,-3.7413,-3.7393,-3.7583,-3.7583,-3.7583,-3.7583,-3.7583,-3.7583,-3.7279,-3.7354,-3.7343,-3.7424,-3.7428,-3.7481,-3.7497,-3.7516,-3.7529,-3.7592,-3.7626,-3.7623,-3.7632,-3.767,-3.7707,-3.7705,-3.7722,-3.7757,-3.7749,-3.7602,-3.7581,-3.7561,-3.7543,-3.7761,-3.7761,-3.7902,-3.7904,-3.7905]},{"header":{"parameterUnit":"m.s-1","parameterCategory":1,"la1":30.2991,"la2":30.254,"lo1":-89.0895,"lo2":-89.0444,"dy":0.0017,"dx":0.0017,"nx":28,"ny":28,"refTime":"2024-03-29T09:00:00:Z","depth":0,"parameterNumber":3,"parameterNumberName":"V-component_of_WINDS"},"data":[0,0,0,0,0,0,0,0,0,0,0,0,0,0,0,0,0,0,0,0,0,0,0,0,0,0,0,0,0,0,0,0,0,0,0,0,0,0,0,0,0,0,0,0,0,0,0,0,0,0,0,0,0,0,0,0,0,0,-0.1557,-0.1558,0,-0.1575,-0.1575,-0.1575,-0.1561,-0.156,-0.156,-0.1559,-0.1578,-0.1579,-0.158,0,0,0,0,0,0,0,0,0,0,0,0,0,-0.1512,-0.1513,-0.1557,-0.1558,-0.1558,-0.1574,-0.1575,-0.1575,-0.1561,-0.156,-0.156,-0.1559,-0.1578,-0.1579,-0.158,0,0,0,0,0,0,0,0,0,0,0,0,0,-0.1531,-0.1514,-0.1557,-0.1553,-0.1553,-0.1574,-0.1575,-0.1575,-0.1561,-0.156,-0.1559,-0.1559,-0.1577,-0.1579,-0.158,-0.1608,0,0,-0.1585,-0.1586,0,0,0,0,0,0,0,0,-0.153,-0.1533,-0.1553,-0.1553,-0.1553,-0.1565,-0.1566,-0.1586,-0.1561,-0.1558,-0.1559,-0.1558,-0.1574,-0.1576,-0.1581,-0.1609,-0.161,-0.1585,-0.1586,-0.1587,-0.1587,0,0,0,0,0,0,0,-0.1529,-0.1532,-0.1564,-0.1554,-0.1553,-0.155,-0.1552,-0.157,-0.1571,-0.1558,-0.1557,-0.1559,-0.1574,-0.158,-0.1582,-0.161,-0.1585,-0.1587,-0.1588,-0.1588,-0.1659,-0.166,0,0,0,0,0,0,-0.1528,-0.1531,-0.1564,-0.1565,-0.1539,-0.1551,-0.1553,-0.1562,-0.1571,-0.1571,-0.156,-0.1559,-0.1578,-0.158,-0.1582,-0.1614,-0.1587,-0.1588,-0.1589,-0.1659,-0.166,-0.1661,0,0,0,0,0,0,-0.1527,-0.1531,-0.1563,-0.1548,-0.1551,-0.1553,-0.1563,-0.1563,-0.1568,-0.1572,-0.1572,-0.1566,-0.1577,-0.158,-0.1601,-0.1615,-0.1589,-0.1591,-0.1657,-0.1659,-0.166,-0.1679,0,0,0,0,0,0,-0.1526,-0.1531,-0.1541,-0.1548,-0.1552,-0.1582,-0.1564,-0.1564,-0.1571,-0.1569,-0.1578,-0.1578,-0.1577,-0.1599,-0.1603,-0.1617,-0.1592,-0.1656,-0.1658,-0.166,-0.1678,-0.1681,-0.1684,0,0,0,0,0,-0.1524,-0.1547,-0.1542,-0.1546,-0.1565,-0.1583,-0.1585,-0.1583,-0.1572,-0.1583,-0.1585,-0.1578,-0.1613,-0.1601,-0.1606,-0.162,-0.1655,-0.1658,-0.166,-0.1676,-0.1681,-0.1684,0,0,0,0,0,0,-0.1542,-0.1547,-0.1542,-0.1568,-0.1575,-0.158,-0.1594,-0.1588,-0.1598,-0.1596,-0.1593,-0.1595,-0.1617,-0.1621,-0.1608,-0.1646,-0.1632,-0.1635,-0.1643,-0.1648,-0.1651,-0.165,-0.1593,0,0,0,0,0,-0.1549,-0.1562,-0.1566,-0.1588,-0.1592,-0.1592,-0.1599,-0.1596,-0.1604,-0.1607,-0.1611,-0.1619,-0.1631,-0.164,-0.1651,-0.1678,-0.1679,-0.169,-0.1693,-0.1696,-0.1699,-0.1712,-0.1717,-0.1668,-0.1668,-0.1668,0,0,-0.1564,-0.1568,-0.1577,-0.1592,-0.1597,-0.1611,-0.1595,-0.161,-0.162,-0.161,-0.163,-0.1632,-0.1641,-0.1664,-0.1675,-0.1668,-0.1712,-0.1699,-0.1701,-0.1702,-0.1715,-0.1719,-0.1723,-0.1669,-0.1669,-0.1669,0,0,-0.1597,-0.1602,-0.162,-0.1625,-0.1633,-0.1633,-0.1637,-0.1643,-0.1644,-0.1664,-0.1656,-0.1668,-0.169,-0.1696,-0.1702,-0.1735,-0.1729,-0.1739,-0.1758,-0.1771,-0.1774,-0.1778,-0.179,-0.1794,-0.1742,-0.1742,-0.1742,0,-0.1614,-0.1635,-0.163,-0.1646,-0.1652,-0.1642,-0.166,-0.1666,-0.1677,-0.1682,-0.1674,-0.17,-0.1705,-0.1729,-0.1737,-0.1743,-0.1747,-0.1739,-0.1774,-0.1778,-0.1781,-0.1792,-0.1796,-0.1743,-0.1743,-0.1743,-0.1743,0,-0.1655,-0.1669,-0.1683,-0.1693,-0.1701,-0.1718,-0.1716,-0.1725,-0.1721,-0.1721,-0.1741,-0.1746,-0.1758,-0.1764,-0.1761,-0.1788,-0.1783,-0.1775,-0.176,-0.1787,-0.1797,-0.1801,-0.1745,-0.1744,-0.1744,-0.1744,0,0,-0.1702,-0.1708,-0.1713,-0.1717,-0.1724,-0.1735,-0.1751,-0.1762,-0.1769,-0.1777,-0.179,-0.1808,-0.18,-0.1807,-0.1804,-0.1815,-0.1841,-0.1805,-0.1805,-0.1812,-0.187,-0.1876,-0.1881,-0.1836,-0.1837,-0.1838,-0.1869,0,-0.1735,-0.1762,-0.1758,-0.1785,-0.1797,-0.1787,-0.1801,-0.1807,-0.1807,-0.1818,-0.1818,-0.1831,-0.1819,-0.1823,-0.1834,-0.1835,-0.1853,-0.1833,-0.1849,-0.1849,-0.1847,-0.1887,-0.1894,-0.1924,-0.1873,-0.1874,-0.1875,0,-0.1778,-0.1786,-0.1814,-0.1817,-0.1823,-0.1835,-0.1844,-0.1855,-0.186,-0.186,-0.1867,-0.1861,-0.1877,-0.1862,-0.1883,-0.187,-0.1876,-0.1878,-0.1879,-0.188,-0.1864,-0.189,-0.1933,-0.1937,-0.1881,-0.188,-0.188,0,-0.1809,-0.1827,-0.1845,-0.1849,-0.1854,-0.1863,-0.1865,-0.187,-0.1877,-0.1885,-0.1889,-0.1899,-0.1905,-0.1913,-0.191,-0.19,-0.1932,-0.1917,-0.1932,-0.1932,-0.194,-0.1939,-0.1985,-0.1943,-0.1943,-0.1943,-0.1943,0,-0.1847,-0.1864,-0.1859,-0.187,-0.1889,-0.1884,-0.1902,-0.1904,-0.1908,-0.1919,-0.1911,-0.1922,-0.1918,-0.1928,-0.1926,-0.1944,-0.1947,-0.1947,-0.1946,-0.1948,-0.1948,-0.1952,-0.195,-0.1944,-0.1944,-0.1944,-0.1944,0,-0.1884,-0.1882,-0.1901,-0.1904,-0.1905,-0.1918,-0.1921,-0.1931,-0.193,-0.1945,-0.1948,-0.1947,-0.1959,-0.1957,-0.197,-0.1969,-0.1991,-0.1988,-0.1989,-0.1988,-0.2003,-0.2002,-0.2053,-0.2059,-0.2014,-0.2014,-0.2014,0,-0.1909,-0.1922,-0.1925,-0.1932,-0.1935,-0.1946,-0.1952,-0.1947,-0.1954,-0.1961,-0.197,-0.1981,-0.199,-0.2009,-0.201,-0.202,-0.2017,-0.2034,-0.2018,-0.2019,-0.2017,-0.2016,-0.2017,-0.2037,-0.2038,-0.2038,-0.2038,0,-0.1952,-0.195,-0.1959,-0.1968,-0.1975,-0.1982,-0.1988,-0.1994,-0.1989,-0.1997,-0.2009,-0.2015,-0.2028,-0.2039,-0.2048,-0.205,-0.2044,-0.2043,-0.2047,-0.2049,-0.2049,-0.2049,-0.1997,-0.2042,-0.2042,-0.2041,-0.2041,-0.2041,-0.1984,-0.1994,-0.1998,-0.2008,-0.2012,-0.2017,-0.2027,-0.2027,-0.2036,-0.2046,-0.2042,-0.2055,-0.206,-0.2071,-0.2074,-0.2085,-0.2078,-0.2084,-0.2086,-0.2087,-0.2089,-0.2047,-0.2086,-0.2086,-0.2086,-0.2086,-0.2086,0,-0.2027,-0.2028,-0.2038,-0.2045,-0.2053,-0.2045,-0.2051,-0.2058,-0.2069,-0.2074,-0.2082,-0.2095,-0.2105,-0.2106,-0.2115,-0.2123,-0.212,-0.2126,-0.2125,-0.2126,-0.2094,-0.209,-0.2128,-0.2128,-0.2128,-0.2128,-0.2128,-0.2128,-0.205,-0.2067,-0.2065,-0.2083,-0.2085,-0.2097,-0.2101,-0.2105,-0.2109,-0.2123,-0.2131,-0.2131,-0.2134,-0.2143,-0.2152,-0.2152,-0.2156,-0.2163,-0.2162,-0.2132,-0.2128,-0.2124,-0.212,-0.2164,-0.2164,-0.2192,-0.2193,-0.2193]}]]